Weather History for West Plains, MO

Change the Weather History Date:

Saturday, December 15, 2012

  Actual Average Record
Temperature  
Mean Temperature 56 °F 36 °F  
Max Temperature 66 °F 46 °F 69 °F (1948)
Min Temperature 45 °F 26 °F 2 °F (1958)
Degree Days  
Heating Degree Days 9 29  
Month to date heating degree days 264 408  
Since 1 July heating degree days 1208 1260  
Growing Degree Days 4 (Base 50)    
Moisture  
Dew Point 42 °F    
Average Humidity 72    
Maximum Humidity 93    
Minimum Humidity 34    
Precipitation  
Precipitation 0.21 in 0.11 in 2.02 in (1992)
Month to date precipitation 0.82 2.15  
Year to date precipitation 30.74 44.73  
Sea Level Pressure  
Sea Level Pressure 29.78 in    
Wind  
Wind Speed 11 mph (South)    
Max Wind Speed 22 mph    
Max Gust Speed 32 mph    
Visibility 8 miles    
Events Rain    
T = Trace of Precipitation, MM = Missing Value Source: NWS Daily Summary

Daily Weather History Graph

Daily Weather History Graph

Search for Another Location

Airport:

Trip Planner

Search our weather history database for the weather conditions in past years. The results will help you decide how hot, cold, wet, or windy it might be!

Date:

Astronomy

Dec. 15, 2012 Rise Set
Actual Time 7:13 AM CST 4:52 PM CST
Civil Twilight 6:44 AM CST 5:21 PM CST
Nautical Twilight 6:12 AM CST 5:53 PM CST
Astronomical Twilight 5:40 AM CST 6:25 PM CST
Moon 9:09 AM CST (12/15) 7:53 PM CST (12/15)
Length of Visible Light 10h 36m
Length of Day
9h 38m
Waxing Crescent, 8% of the Moon is Illuminated
Dec 15
Waxing Crescent
Dec 19
First Quarter
Dec 28
Full
Jan 4
Last Quarter
Jan 11
New

Hourly Weather History & Observations

Time (CST) Temp. Windchill Dew Point Humidity Pressure Visibility Wind Dir Wind Speed Gust Speed Precip Events Conditions
12:48 AM 44.6 °F 39.2 °F 39.2 °F 81% 29.91 in 10.0 mi SE 10.4 mph 19.6 mph 0.00 in   Overcast
12:53 AM 45.0 °F 38.9 °F 39.0 °F 80% 29.91 in 10.0 mi SSE 12.7 mph 21.9 mph 0.00 in   Overcast
1:53 AM 45.0 °F 38.5 °F 39.9 °F 82% 29.89 in 8.0 mi SSE 13.8 mph 21.9 mph 0.01 in Rain Light Rain
2:53 AM 45.0 °F 38.9 °F 41.0 °F 86% 29.84 in 10.0 mi SSE 12.7 mph 20.7 mph 0.00 in   Overcast
3:11 AM 44.6 °F 37.8 °F 41.0 °F 87% 29.84 in 8.0 mi SSE 15.0 mph 20.7 mph 0.01 in Rain Light Rain
3:27 AM 44.6 °F 38.1 °F 42.8 °F 93% 29.84 in 1.8 mi SSE 13.8 mph 19.6 mph 0.13 in Rain Heavy Rain
3:36 AM 44.6 °F 38.8 °F 42.8 °F 93% 29.85 in 2.5 mi South 11.5 mph - 0.17 in Rain Rain
3:53 AM 45.0 °F 39.3 °F 42.1 °F 90% 29.84 in 6.0 mi South 11.5 mph - 0.19 in Rain Light Rain
4:20 AM 46.4 °F 41.1 °F 42.8 °F 87% 29.82 in 7.0 mi SSE 11.5 mph - 0.01 in Rain Light Rain
4:53 AM 46.0 °F 41.0 °F 43.0 °F 89% 29.81 in 8.0 mi SSE 10.4 mph 19.6 mph 0.01 in   Overcast
5:14 AM 46.4 °F 41.9 °F 44.6 °F 93% 29.81 in 8.0 mi South 9.2 mph 19.6 mph N/A   Overcast
5:53 AM 48.0 °F - 45.0 °F 89% 29.81 in 8.0 mi South 13.8 mph 23.0 mph N/A   Overcast
6:51 AM 48.2 °F - 46.4 °F 93% 29.80 in 5.0 mi South 13.8 mph - N/A   Overcast
6:53 AM 48.0 °F - 46.0 °F 93% 29.80 in 5.0 mi South 11.5 mph - N/A   Overcast
7:22 AM 48.2 °F - 46.4 °F 93% 29.79 in 1.8 mi South 11.5 mph 20.7 mph N/A   Overcast
7:53 AM 48.9 °F - 46.9 °F 93% 29.79 in 1.8 mi South 12.7 mph - N/A   Overcast
8:03 AM 48.2 °F - 46.4 °F 93% 29.79 in 3.0 mi South 12.7 mph 20.7 mph N/A   Overcast
8:33 AM 51.8 °F - 48.2 °F 88% 29.78 in 6.0 mi South 15.0 mph 23.0 mph N/A   Overcast
8:45 AM 51.8 °F - 48.2 °F 88% 29.78 in 8.0 mi South 12.7 mph 20.7 mph N/A   Overcast
8:53 AM 52.0 °F - 48.9 °F 89% 29.78 in 9.0 mi South 10.4 mph 21.9 mph N/A   Overcast
9:53 AM 55.0 °F - 48.9 °F 80% 29.77 in 10.0 mi SSW 16.1 mph 31.1 mph N/A   Mostly Cloudy
10:19 AM 55.4 °F - 48.2 °F 77% 29.77 in 10.0 mi SSW 13.8 mph 25.3 mph N/A   Mostly Cloudy
10:34 AM 57.2 °F - 48.2 °F 72% 29.76 in 10.0 mi SSW 13.8 mph 23.0 mph N/A   Scattered Clouds
10:53 AM 57.9 °F - 48.9 °F 72% 29.75 in 10.0 mi SSW 13.8 mph 25.3 mph N/A   Partly Cloudy
11:53 AM 61.0 °F - 46.9 °F 60% 29.72 in 10.0 mi SW 13.8 mph 21.9 mph N/A   Clear
12:53 PM 64.0 °F - 39.9 °F 41% 29.69 in 10.0 mi SW 17.3 mph 27.6 mph N/A   Clear
1:53 PM 64.9 °F - 37.9 °F 37% 29.67 in 10.0 mi SSW 16.1 mph 27.6 mph N/A   Clear
2:53 PM 64.9 °F - 36.0 °F 34% 29.67 in 10.0 mi SW 17.3 mph 25.3 mph N/A   Clear
3:53 PM 63.0 °F - 35.1 °F 35% 29.69 in 10.0 mi SSW 11.5 mph 19.6 mph N/A   Clear
4:53 PM 60.1 °F - 35.1 °F 39% 29.70 in 10.0 mi SSW 8.1 mph 18.4 mph N/A   Clear
5:53 PM 57.9 °F - 36.0 °F 44% 29.72 in 10.0 mi SSW 6.9 mph - N/A   Clear
6:53 PM 55.9 °F - 36.0 °F 47% 29.74 in 10.0 mi SSW 8.1 mph - N/A   Clear
7:53 PM 54.0 °F - 35.1 °F 49% 29.76 in 10.0 mi SW 8.1 mph - N/A   Clear
8:53 PM 52.0 °F - 35.1 °F 53% 29.77 in 10.0 mi SW 5.8 mph - N/A   Clear
9:53 PM 53.1 °F - 33.1 °F 47% 29.76 in 10.0 mi SW 6.9 mph - N/A   Clear
10:53 PM 50.0 °F - 33.1 °F 52% 29.76 in 10.0 mi WSW 3.5 mph - N/A   Clear
11:53 PM 45.0 °F 43.5 °F 33.1 °F 63% 29.76 in 10.0 mi WSW 3.5 mph - N/A   Clear